Temp
26 23 21 21 21 21 21 22 21 21 21 22 22 22 21 21 21 21 21 21 22 22 22 21 21 21 21 21 21 21 21 21 21 21 21 20 20 21 22 22 22 22 20
27 24 21 21 21 21 21 21 21 21 22 21 22 21 21 21 21 21 21 21 21 21 22 21 21 21 21 21 21 21 21 21 21 21 21 21 20 20 21 21 23 21 20
27 24 22 21 21 21 22 22 22 22 21 22 21 22 21 21 21 21 21 21 21 21 21 21 21 21 21 21 21 21 21 21 22 22 24 24 22 21 21 21 22 20 20
28 26 24 22 22 22 22 22 23 23 22 22 21 22 22 21 21 21 21 21 21 21 21 21 21 21 21 21 21 21 22 22 22 22 22 25 24 21 20 21 20 20 20
28 27 22 22 22 22 22 22 22 22 22 22 21 22 21 21 21 21 21 21 22 21 21 21 21 21 21 21 21 21 22 23 23 23 24 25 25 21 20 21 21 20 21
25 24 23 22 22 22 22 21 21 21 22 22 22 22 21 21 21 21 21 21 21 21 22 21 21 21 21 21 21 21 23 23 24 25 25 24 24 22 21 20 21 21 21
26 26 23 22 21 21 21 21 21 21 21 21 21 21 21 21 21 21 22 21 21 21 21 22 22 22 21 21 21 21 22 22 24 25 24 24 22 21 21 20 21 20 20
27 27 24 22 21 21 21 21 21 21 21 22 21 21 22 21 22 21 21 21 22 21 22 22 22 22 22 22 21 22 23 23 25 25 24 22 22 21 21 21 20 20 20
27 27 25 23 22 21 22 21 21 21 22 21 21 21 21 21 21 21 21 21 22 21 21 21 22 22 23 22 22 22 23 23 25 25 24 23 22 20 20 21 21 20 20
25 27 25 24 25 24 23 21 21 21 21 21 21 21 22 22 22 22 22 21 21 21 21 22 22 22 22 22 22 23 23 24 25 25 24 23 22 21 20 20 20 20 21
27 28 26 25 25 25 23 22 22 22 22 22 22 23 22 23 23 23 22 22 21 21 21 22 23 23 23 23 23 23 22 23 25 26 24 23 22 20 20 21 20 20 20
29 29 28 27 27 26 27 24 24 24 24 24 25 24 23 24 25 26 23 22 22 22 23 23 23 23 21 23 23 23 23 24 23 23 23 23 22 21 21 21 21 20 21
30 29 28 28 27 27 27 27 27 27 27 25 25 25 25 25 25 25 24 24 23 23 24 24 23 24 24 23 23 24 23 23 23 23 22 22 21 21 21 20 20 21 21
29 29 29 27 27 28 27 27 28 28 28 27 26 25 25 25 26 26 25 24 25 26 25 26 26 24 24 23 23 23 23 23 22 22 23 22 21 20 20 20 20 20 21
30 29 29 28 26 27 27 28 28 28 28 28 26 26 27 27 26 27 26 25 25 25 25 26 25 24 24 23 22 23 23 23 22 21 22 22 21 22 20 20 21 20 20
31 30 29 28 26 26 27 27 27 28 28 28 28 26 25 26 26 27 27 26 25 25 24 25 24 23 23 23 22 22 23 22 22 21 21 21 21 21 21 20 21 21 21
31 30 29 28 27 26 26 25 27 28 28 28 27 26 24 25 25 25 27 27 25 25 26 26 25 23 23 23 23 22 22 23 22 22 22 20 21 20 21 21 21 21 20
31 30 29 29 29 27 27 26 27 27 29 28 28 27 25 25 24 24 25 26 26 26 25 26 25 24 23 25 23 23 24 24 23 21 22 22 22 21 20 21 20 20 20
31 29 28 28 29 28 27 27 27 27 28 28 28 27 26 26 25 24 25 26 26 26 26 26 26 24 24 24 25 24 24 25 24 23 22 22 23 22 21 21 20 19 19
31 29 28 28 28 27 26 26 28 28 28 28 28 28 27 26 26 25 25 26 25 26 26 26 25 25 24 24 25 26 26 26 26 25 24 24 23 22 22 21 20 20 20
31 30 29 28 27 27 27 27 28 29 28 28 27 27 26 26 26 26 26 26 25 25 25 25 25 25 25 25 24 27 28 27 27 27 25 24 24 23 22 21 21 20 20
32 31 29 28 27 26 27 28 29 29 29 29 28 28 27 25 26 25 25 26 25 26 25 25 25 25 27 26 26 27 27 27 28 27 26 27 26 24 24 23 21 21 20
33 31 30 29 28 26 28 27 27 28 27 28 28 28 28 26 26 26 25 25 25 25 27 26 25 25 27 28 26 26 29 27 28 28 27 27 26 26 25 24 23 23 21
34 33 31 29 28 27 27 28 28 29 29 30 29 29 29 28 27 27 26 26 25 26 27 26 26 25 26 26 27 27 27 27 28 29 28 28 27 26 26 26 25 24 23
35 34 32 30 28 28 27 27 28 27 29 29 29 29 28 28 27 27 27 26 26 26 27 27 26 25 25 25 25 26 25 24 24 24 25 29 28 28 27 26 26 25 24
36 34 33 30 28 27 27 26 27 29 28 30 29 29 29 29 29 27 27 27 26 26 26 26 25 25 24 25 25 25 24 25 25 23 22 25 26 26 26 26 27 26 25
Height
824 829 831 834 835 835 836 836 836 837 838 838 840 840 841 841 841 842 842 843 843 844 845 845 845 845 846 847 848 847 848 848 848 848 849 850 851 852 853 853 852 854 855
822 830 832 835 836 837 838 838 839 839 840 840 841 842 842 843 843 844 844 845 845 846 846 847 848 847 848 848 849 850 850 851 851 851 852 853 854 855 855 855 855 856 857
822 830 833 835 837 838 839 840 840 841 841 842 843 843 844 845 846 846 846 847 847 848 849 849 849 850 850 850 851 851 851 851 851 851 851 854 857 856 856 856 857 858 858
822 828 834 836 838 839 840 840 842 843 842 843 844 845 846 846 847 848 848 849 850 851 852 852 852 852 853 853 853 853 853 854 854 855 855 855 857 858 858 858 859 859 860
823 827 834 837 838 840 842 842 843 843 843 845 845 846 847 847 848 849 850 851 852 852 854 853 854 855 855 855 855 855 856 856 856 856 856 856 858 860 860 860 861 861 862
826 831 834 838 839 841 843 843 844 845 845 846 847 847 849 849 850 851 851 853 855 855 856 856 857 856 857 857 858 858 858 858 857 857 857 859 858 860 862 863 863 864 864
829 832 837 839 841 843 844 845 846 846 847 848 848 848 850 851 852 852 854 855 856 857 858 858 859 858 859 859 860 860 859 859 858 858 859 860 860 861 862 863 863 864 865
829 832 837 840 843 845 845 846 847 848 848 849 850 851 852 852 853 854 856 857 857 858 858 859 859 859 859 860 860 861 861 860 861 860 861 861 862 863 863 863 865 865 866
830 833 838 842 844 845 846 847 848 849 849 851 851 852 853 854 855 857 857 859 858 859 859 859 859 858 859 860 861 861 861 861 862 861 861 862 863 864 864 864 865 866 867
834 835 838 841 843 846 847 848 849 850 851 852 853 854 854 855 857 858 858 860 860 860 860 860 860 859 859 860 861 862 862 861 862 861 861 861 863 865 866 866 866 866 866
832 833 838 842 844 846 847 849 850 851 852 853 854 854 855 857 858 859 860 860 861 861 861 861 859 857 857 857 861 862 863 861 861 861 861 862 863 865 866 866 868 868 867
830 832 835 839 841 845 845 849 850 851 851 852 853 855 856 858 857 858 860 860 860 860 860 860 858 857 847 859 860 862 862 862 862 861 861 861 864 865 865 866 867 868 868
827 831 835 838 841 844 845 846 846 848 850 853 855 855 856 857 856 856 857 860 859 860 860 860 859 857 860 859 860 861 860 859 859 861 863 864 865 865 867 866 866 868 868
828 831 834 838 841 841 845 845 845 846 848 849 853 855 856 856 856 857 857 859 858 859 859 859 858 859 860 861 860 861 859 860 859 859 862 863 863 865 866 867 867 867 869
826 829 832 836 840 842 844 844 845 847 847 848 852 853 853 854 856 856 857 858 858 858 858 859 860 859 861 861 860 860 860 859 858 858 859 860 862 862 861 865 866 867 868
825 828 831 836 840 842 843 845 846 847 846 847 850 852 854 853 855 855 855 856 857 858 857 859 859 861 860 859 859 857 857 856 854 855 855 858 859 860 861 863 865 867 867
825 828 832 835 839 841 843 846 845 845 846 847 849 852 853 854 855 855 855 855 856 856 856 857 857 859 859 858 856 854 853 850 846 846 850 855 857 858 859 861 863 865 866
822 828 831 833 836 840 842 845 844 845 844 845 846 849 852 854 854 854 854 854 855 854 854 855 856 856 857 855 854 852 850 844 840 832 845 850 854 855 856 858 861 861 863
822 827 831 834 835 838 841 843 844 844 844 844 846 848 850 853 853 855 854 853 854 853 853 853 853 854 853 851 850 848 846 842 840 841 844 847 850 852 854 855 855 856 859
820 825 830 833 835 838 840 842 842 841 843 844 845 847 847 850 851 852 852 852 853 852 852 853 852 852 851 849 847 844 841 838 836 837 841 843 845 848 849 852 853 852 854
817 821 826 830 833 836 838 839 840 839 840 842 844 845 847 849 849 850 849 850 850 850 850 851 850 849 848 847 847 841 835 835 833 831 831 836 840 844 845 847 848 848 850
811 817 821 825 829 833 834 836 835 836 836 838 840 841 844 846 847 848 848 849 849 848 848 848 848 847 843 842 843 839 834 834 832 831 830 834 836 837 839 840 842 843 846
805 812 816 820 824 827 829 832 834 836 837 837 838 839 839 842 844 845 846 847 847 847 844 844 845 844 842 839 837 839 833 832 829 828 828 830 830 833 834 834 836 838 838
799 806 811 816 820 824 827 828 830 831 832 831 833 833 835 838 840 841 842 843 843 843 842 842 840 841 840 837 835 833 833 834 832 829 827 826 827 827 826 828 829 831 833
793 799 806 812 816 819 822 824 827 830 829 831 831 832 834 835 836 837 838 839 840 839 837 837 837 837 837 836 835 833 833 834 835 833 830 823 823 823 823 821 822 823 825
785 794 800 806 811 815 818 821 823 825 827 826 828 829 831 830 830 831 834 835 836 836 835 834 833 833 832 831 830 830 831 829 828 830 830 825 822 820 820 818 817 816 817
Wind_Speed
21 15 14 12 10 11 10 11 12 13 12 11 9 8 6 7 8 9 10 10 11 12 12 14 14 13 13 11 12 14 13 13 13 14 14 14 12 12 11 12 16 13 14
21 17 16 13 11 11 10 10 10 10 10 10 9 6 5 8 8 9 10 11 11 11 13 14 14 14 12 13 13 13 13 12 13 13 13 13 11 10 8 8 15 13 13
22 18 16 13 11 11 11 9 9 9 9 8 8 7 8 8 9 10 11 12 11 12 14 13 14 13 13 13 13 12 12 10 12 14 17 14 9 8 9 12 11 12 12
20 20 16 13 11 10 10 8 7 8 9 9 9 7 8 10 9 11 12 12 12 12 13 13 13 12 12 11 10 10 11 11 8 6 5 10 10 8 8 10 11 11 12
19 23 17 12 10 9 7 8 8 8 9 9 9 9 11 11 11 12 11 11 11 13 12 12 12 13 13 10 10 9 9 9 7 2 3 10 11 7 8 9 9 9 10
25 19 16 11 9 9 9 8 8 8 10 11 10 12 11 11 11 12 11 11 11 11 11 11 10 9 7 8 7 6 9 7 5 7 8 7 14 9 9 6 9 8 8
19 14 13 12 11 10 9 8 8 8 9 9 10 11 12 12 12 11 11 11 10 10 10 10 8 6 6 7 8 6 9 5 4 4 7 7 9 9 6 7 8 8 7
16 18 14 14 12 10 8 10 9 9 10 10 11 11 12 11 12 11 10 10 9 10 9 9 7 5 5 6 6 6 8 6 3 5 7 7 6 7 5 8 7 7 8
16 14 15 13 11 10 10 10 10 10 11 11 11 10 11 12 10 9 9 8 9 9 8 9 8 9 10 9 7 6 8 6 4 4 7 7 6 6 6 7 9 8 7
11 12 18 14 12 10 9 10 10 9 10 10 11 10 11 10 9 9 8 8 7 7 7 6 8 9 10 8 7 6 7 4 3 6 9 5 5 5 5 6 7 7 7
16 13 13 12 11 11 8 9 9 10 10 12 10 11 10 8 10 11 8 8 7 6 5 5 6 7 8 9 6 4 3 3 1 5 8 5 5 5 5 6 7 7 7
13 13 14 16 14 11 11 9 9 9 10 9 10 7 12 7 5 9 7 6 6 5 4 5 4 4 7 7 8 5 2 3 3 5 7 4 2 4 4 5 6 7 7
15 14 14 12 11 11 10 10 10 11 8 7 7 3 4 6 8 10 8 5 7 5 7 4 3 4 2 7 4 2 3 7 8 6 2 2 1 3 4 5 6 7 7
14 14 14 14 11 11 10 9 7 6 8 10 11 7 6 9 3 4 5 7 6 5 6 6 7 5 1 1 5 7 6 3 6 10 10 9 4 4 4 4 6 7 7
15 15 15 14 13 10 10 7 8 7 7 8 5 6 2 7 4 4 4 5 2 4 6 5 3 5 5 6 7 5 7 5 6 10 13 11 15 11 6 6 5 6 8
13 14 15 14 14 12 10 9 8 8 7 6 7 9 5 2 5 5 4 7 3 4 3 8 5 6 7 7 10 9 9 9 11 12 14 15 11 18 15 9 8 7 7
12 13 13 13 13 12 10 10 8 8 9 9 8 6 6 6 5 5 6 4 6 6 5 7 6 7 9 11 12 12 11 13 16 16 15 14 15 17 20 20 12 10 9
13 13 12 11 13 12 10 9 9 8 8 8 8 9 9 7 5 7 6 5 8 9 8 8 8 8 9 12 12 13 12 15 18 13 14 16 18 19 20 19 16 18 12
12 13 12 10 10 11 9 8 8 8 7 6 7 7 10 7 7 7 7 9 8 8 10 8 5 6 6 11 12 9 13 14 13 10 12 16 18 19 18 19 20 20 16
14 13 13 12 11 11 10 8 9 8 8 5 6 6 8 8 7 7 10 7 6 10 9 8 7 9 9 10 12 13 16 14 12 12 11 13 15 17 20 17 17 23 22
16 16 16 15 14 13 12 11 9 9 8 9 8 8 7 7 8 9 8 10 6 8 6 7 10 8 9 8 8 11 12 12 15 10 16 16 13 16 17 20 19 19 22
19 18 18 17 17 16 13 11 10 8 9 10 11 11 8 10 11 10 11 7 5 8 6 8 8 9 10 9 6 12 4 2 6 8 8 7 9 13 16 18 19 21 19
20 20 21 21 21 20 17 14 12 10 8 8 10 10 13 11 11 12 10 10 7 8 10 8 8 8 11 10 7 5 5 1 7 11 7 7 12 10 12 18 15 21 23
22 21 20 22 22 21 19 17 16 13 13 12 11 10 7 9 10 12 12 10 11 10 11 9 12 9 8 12 13 10 10 9 7 5 8 9 8 12 16 17 15 18 23
22 21 21 22 23 23 22 21 17 15 12 10 9 7 8 9 11 12 12 12 12 12 12 11 12 11 12 13 15 16 12 9 11 5 6 8 9 10 12 19 15 18 18
24 22 21 22 23 23 22 21 19 15 14 11 10 9 10 11 13 16 13 14 14 14 14 12 12 13 15 15 17 15 14 13 7 10 6 14 14 12 14 14 16 15 18
Wind_Direction
144 139 128 113 106 98 100 97 98 111 123 128 125 117 109 101 104 94 99 106 106 106 106 103 101 102 108 112 107 107 106 107 105 107 108 108 111 116 114 117 117 112 116
128 134 128 120 104 104 103 102 107 113 128 132 133 121 114 110 99 100 102 107 107 104 104 105 103 100 111 105 113 107 110 112 117 120 118 111 112 112 94 109 119 122 121
125 133 126 120 108 104 93 95 107 113 132 135 129 131 121 114 102 98 105 101 106 109 108 108 108 106 105 111 109 118 117 127 129 132 126 109 111 117 101 110 115 122 123
126 137 132 124 112 108 104 104 114 122 124 123 122 125 118 109 107 105 103 110 108 111 106 106 105 105 108 111 109 111 121 119 138 131 188 120 111 122 109 117 119 125 127
130 130 132 125 118 114 105 100 105 111 115 123 113 115 118 117 112 110 115 109 107 110 115 115 112 109 97 111 104 113 128 127 120 111 172 100 120 136 118 121 123 126 129
115 118 131 132 123 122 118 113 109 118 118 119 116 118 116 119 119 111 113 114 108 108 115 114 117 119 108 99 106 114 119 112 43 78 87 88 101 134 130 132 147 135 136
118 125 125 125 127 122 119 117 113 117 124 125 115 120 112 118 118 116 109 109 113 111 104 106 105 111 119 105 107 121 127 81 107 129 133 92 110 136 137 143 139 133 141
134 127 126 126 122 121 119 117 114 119 127 126 114 111 120 121 121 122 117 120 122 123 104 99 87 95 132 127 120 109 126 115 83 101 108 116 122 133 139 156 142 150 149
108 123 134 133 131 124 119 118 119 120 118 121 123 121 123 116 119 124 128 132 131 129 108 102 90 100 114 129 120 105 124 109 112 104 130 119 131 135 140 147 163 162 154
133 147 132 148 136 133 116 127 126 124 122 128 123 126 121 123 126 128 127 129 130 130 125 114 109 115 115 110 101 91 117 109 120 150 123 128 129 148 159 163 169 178 173
171 152 147 149 152 137 133 136 127 130 137 132 125 131 122 134 149 129 139 139 143 143 146 141 141 154 145 118 122 112 104 40 326 68 109 115 167 172 187 191 195 197 186
153 166 151 162 149 153 148 147 158 156 167 154 149 150 146 140 128 138 149 144 151 154 168 173 179 189 197 129 122 110 162 137 204 56 61 96 164 196 193 197 209 201 203
153 152 159 159 163 156 139 165 164 155 145 136 146 150 123 150 177 169 144 158 178 161 185 169 200 274 20 95 124 313 284 183 184 168 129 184 261 240 218 221 213 209 213
160 161 168 162 172 165 157 184 149 141 162 159 151 160 161 177 148 151 137 164 194 160 179 196 193 169 230 284 264 277 303 294 194 178 217 242 210 240 250 241 226 220 210
162 160 165 159 169 167 172 170 162 154 191 146 155 180 191 168 148 187 149 158 178 210 206 179 130 201 218 233 254 255 280 256 253 234 228 218 227 225 221 241 231 230 221
162 163 153 163 168 170 172 170 171 178 185 151 171 170 197 218 179 174 200 175 201 245 178 194 194 210 237 246 244 263 257 241 241 220 227 212 220 215 223 221 235 228 226
172 163 158 172 172 174 173 179 187 185 176 182 184 175 193 206 194 262 208 197 216 240 236 210 208 209 239 235 248 257 250 246 232 214 213 214 221 218 224 225 221 228 230
156 160 170 180 176 180 182 187 198 199 187 199 194 185 189 207 220 228 220 222 231 232 226 256 243 244 264 265 264 249 258 259 249 200 210 217 218 225 232 235 229 242 243
153 163 173 178 180 168 178 187 204 186 220 198 199 216 173 216 232 242 243 232 245 261 261 255 262 273 266 269 279 258 258 269 272 251 225 221 219 217 224 228 228 229 231
167 170 177 180 176 179 180 195 205 201 214 207 222 218 175 223 225 232 244 251 256 265 279 284 312 289 279 269 283 277 256 251 257 235 226 218 212 215 223 220 223 228 227
185 184 185 188 185 184 189 193 206 222 206 219 226 221 230 235 237 232 248 241 227 250 271 267 271 252 282 278 280 289 291 233 260 238 212 202 204 221 216 224 221 225 228
190 194 194 195 194 196 198 207 218 216 221 219 222 209 225 231 239 242 248 262 251 275 250 263 277 291 283 251 273 301 283 178 250 250 218 196 227 216 214 219 218 223 222
196 197 200 200 198 199 205 204 209 226 246 242 240 241 233 225 235 239 252 253 262 259 273 233 257 257 289 296 218 237 294 194 307 189 185 200 181 215 232 220 225 226 226
197 199 201 203 204 204 205 209 209 212 218 218 221 230 233 210 229 236 241 241 241 246 273 267 242 255 272 290 298 271 244 270 291 315 196 220 218 213 221 219 230 228 227
193 194 198 200 202 206 206 214 210 222 227 235 232 231 237 243 233 238 243 246 245 247 254 257 273 268 264 270 277 287 295 277 261 269 281 285 204 255 267 233 235 224 219
188 194 193 194 202 205 208 213 219 220 225 238 217 237 236 234 229 225 231 238 242 251 259 264 263 263 258 263 267 273 268 263 250 237 234 262 253 270 273 275 238 239 223